Weather History for Waseca, MN

Change the Weather History Date:

Saturday, February 1, 2014

  Actual Average Record
Temperature  
Mean Temperature 11 °F -  
Max Temperature 21 °F 22 °F 57 °F (1931)
Min Temperature 1 °F 2 °F -33 °F (1951)
Degree Days  
Heating Degree Days 54    
Moisture  
Dew Point 7 °F    
Average Humidity 75    
Maximum Humidity 86    
Minimum Humidity 67    
Precipitation  
Precipitation 0.00 in - - ()
Sea Level Pressure  
Sea Level Pressure 30.02 in    
Wind  
Wind Speed 9 mph (SW)    
Max Wind Speed 23 mph    
Max Gust Speed 24 mph    
Visibility 10 miles    
Events Snow    
Averages and records for this station are not official NWS values.
T = Trace of Precipitation, MM = Missing Value Source: NWS Daily Summary

Daily Weather History Graph

Daily Weather History Graph

Search for Another Location

Airport:

Trip Planner

Search our weather history database for the weather conditions in past years. The results will help you decide how hot, cold, wet, or windy it might be!

Date:

Astronomy

Feb. 01, 2014 Rise Set
Actual Time 7:31 AM CST 5:24 PM CST
Civil Twilight 7:00 AM CST 5:55 PM CST
Nautical Twilight 6:26 AM CST 6:29 PM CST
Astronomical Twilight 5:52 AM CST 7:03 PM CST
Moon 8:15 AM CST (2/1) 8:07 PM CST (2/1)
Length of Visible Light 10h 54m
Length of Day
9h 52m
Waxing Crescent, 5% of the Moon is Illuminated
Feb 1
Waxing Crescent
Feb 6
First Quarter
Feb 14
Full
Feb 22
Last Quarter
Mar 1
New

Hourly Weather History & Observations

Time (CST) Temp. Windchill Dew Point Humidity Pressure Visibility Wind Dir Wind Speed Gust Speed Precip Events Conditions
12:15 AM 6.8 °F -0.1 °F 1.4 °F 79% 30.01 in 10.0 mi SE 3.5 mph - N/A   Mostly Cloudy
12:36 AM 6.8 °F -2.0 °F 1.4 °F 79% 30.00 in 10.0 mi SE 4.6 mph - N/A   Mostly Cloudy
12:56 AM 8.6 °F 0.1 °F 1.4 °F 73% 29.98 in 10.0 mi SSE 4.6 mph - N/A   Mostly Cloudy
1:15 AM 8.6 °F -1.3 °F 3.2 °F 79% 29.98 in 10.0 mi SSE 5.8 mph - N/A   Scattered Clouds
1:35 AM 8.6 °F -2.6 °F 3.2 °F 79% 29.98 in 10.0 mi SSE 6.9 mph - N/A   Scattered Clouds
1:56 AM 10.4 °F -0.4 °F 3.2 °F 73% 29.98 in 10.0 mi SSE 6.9 mph - N/A   Clear
2:15 AM 10.4 °F -0.4 °F 3.2 °F 73% 30.00 in 10.0 mi South 6.9 mph - N/A   Clear
2:36 AM 12.2 °F 0.7 °F 5.0 °F 73% 29.98 in 10.0 mi South 8.1 mph - N/A   Clear
2:55 AM 12.2 °F -1.8 °F 3.2 °F 67% 29.98 in 10.0 mi South 11.5 mph - N/A   Clear
3:16 AM 12.2 °F 1.7 °F 3.2 °F 67% 29.98 in 10.0 mi South 6.9 mph - N/A   Scattered Clouds
3:35 AM 12.2 °F 1.7 °F 3.2 °F 67% 29.97 in 10.0 mi SSE 6.9 mph - N/A   Overcast
3:55 AM 12.2 °F 2.9 °F 3.2 °F 67% 29.96 in 10.0 mi SSE 5.8 mph - N/A   Overcast
4:16 AM 12.2 °F 4.3 °F 3.2 °F 67% 29.95 in 10.0 mi SE 4.6 mph - N/A   Overcast
4:36 AM 12.2 °F 2.9 °F 3.2 °F 67% 29.94 in 10.0 mi SE 5.8 mph - N/A   Overcast
4:55 AM 12.2 °F 1.7 °F 3.2 °F 67% 29.93 in 10.0 mi SE 6.9 mph - N/A   Overcast
5:15 AM 12.2 °F 0.7 °F 5.0 °F 73% 29.93 in 10.0 mi SE 8.1 mph - N/A   Overcast
5:36 AM 14.0 °F 2.0 °F 6.8 °F 73% 29.93 in 10.0 mi SE 9.2 mph - N/A   Overcast
5:56 AM 14.0 °F 2.0 °F 6.8 °F 73% 29.93 in 10.0 mi SE 9.2 mph - N/A   Overcast
6:15 AM 14.0 °F 3.9 °F 6.8 °F 73% 29.93 in 10.0 mi SSE 6.9 mph - N/A   Overcast
6:35 AM 14.0 °F 5.1 °F 6.8 °F 73% 29.93 in 10.0 mi SSE 5.8 mph - N/A   Overcast
6:56 AM 14.0 °F 6.5 °F 6.8 °F 73% 29.93 in 5.0 mi South 4.6 mph - N/A Snow Light Snow
7:16 AM 14.0 °F 6.5 °F 8.6 °F 79% 29.93 in 10.0 mi SSE 4.6 mph - N/A   Overcast
7:35 AM 14.0 °F 5.1 °F 8.6 °F 79% 29.93 in 10.0 mi South 5.8 mph - N/A   Overcast
7:56 AM 14.0 °F 5.1 °F 8.6 °F 79% 29.93 in 10.0 mi South 5.8 mph - N/A   Overcast
8:16 AM 14.0 °F 3.9 °F 8.6 °F 79% 29.93 in 10.0 mi South 6.9 mph - N/A   Overcast
8:35 AM 14.0 °F 3.9 °F 10.4 °F 86% 29.94 in 10.0 mi South 6.9 mph - N/A   Overcast
8:56 AM 15.8 °F 5.1 °F 10.4 °F 79% 29.95 in 10.0 mi South 8.1 mph - N/A   Overcast
9:16 AM 17.6 °F 8.2 °F 12.2 °F 79% 29.95 in 10.0 mi SSW 6.9 mph - N/A   Overcast
9:36 AM 17.6 °F 8.2 °F 12.2 °F 79% 29.96 in 10.0 mi South 6.9 mph - N/A   Overcast
9:55 AM 19.4 °F 9.5 °F 14.0 °F 80% 29.96 in 10.0 mi SSW 8.1 mph - N/A   Overcast
10:16 AM 19.4 °F 10.4 °F 14.0 °F 80% 29.96 in 10.0 mi SW 6.9 mph - N/A Snow Light Snow
10:36 AM 19.4 °F 10.4 °F 14.0 °F 80% 29.97 in 10.0 mi SW 6.9 mph - N/A   Scattered Clouds
10:56 AM 21.2 °F 10.9 °F 17.6 °F 86% 29.98 in 10.0 mi SW 9.2 mph - N/A   Scattered Clouds
11:16 AM 21.2 °F 10.9 °F 15.8 °F 80% 29.98 in 10.0 mi WSW 9.2 mph - N/A   Clear
11:36 AM 21.2 °F 10.1 °F 15.8 °F 80% 29.98 in 10.0 mi West 10.4 mph - N/A   Clear
11:56 AM 21.2 °F 8.3 °F 15.8 °F 80% 29.98 in 10.0 mi West 13.8 mph - N/A   Clear
12:16 PM 21.2 °F 7.3 °F 14.0 °F 74% 29.99 in 10.0 mi WNW 16.1 mph 19.6 mph N/A   Clear
12:36 PM 19.4 °F 5.0 °F 12.2 °F 74% 29.99 in 10.0 mi WNW 16.1 mph - N/A   Clear
12:55 PM 19.4 °F 5.5 °F 12.2 °F 74% 29.99 in 10.0 mi West 15.0 mph - N/A   Clear
1:16 PM 19.4 °F 4.5 °F 12.2 °F 74% 29.98 in 10.0 mi WNW 17.3 mph - N/A   Clear
1:36 PM 19.4 °F 5.0 °F 12.2 °F 74% 29.99 in 10.0 mi WNW 16.1 mph 19.6 mph N/A   Clear
1:55 PM 21.2 °F 8.3 °F 14.0 °F 74% 30.00 in 10.0 mi West 13.8 mph - N/A   Clear
2:16 PM 19.4 °F 5.0 °F 12.2 °F 74% 30.01 in 10.0 mi WNW 16.1 mph - N/A   Clear
2:36 PM 19.4 °F 4.1 °F 12.2 °F 74% 30.01 in 5.0 mi WNW 18.4 mph - N/A   Haze
2:55 PM 19.4 °F 5.5 °F 12.2 °F 74% 30.01 in 7.0 mi WNW 15.0 mph - N/A   Clear
3:16 PM 19.4 °F 5.0 °F 12.2 °F 74% 30.02 in 7.0 mi WNW 16.1 mph - N/A   Clear
3:36 PM 19.4 °F 3.6 °F 12.2 °F 74% 30.03 in 7.0 mi WNW 19.6 mph - N/A   Clear
3:56 PM 17.6 °F 1.7 °F 12.2 °F 79% 30.05 in 10.0 mi WNW 18.4 mph 24.2 mph N/A   Clear
4:16 PM 17.6 °F 2.2 °F 10.4 °F 73% 30.06 in 10.0 mi WNW 17.3 mph - N/A   Clear
4:36 PM 14.0 °F -2.0 °F 8.6 °F 79% 30.06 in 10.0 mi WNW 16.1 mph 20.7 mph N/A   Clear
4:55 PM 14.0 °F -0.2 °F 8.6 °F 79% 30.06 in 10.0 mi WNW 12.7 mph - N/A   Clear
5:16 PM 12.2 °F -4.3 °F 6.8 °F 79% 30.08 in 10.0 mi WNW 16.1 mph - N/A   Clear
5:35 PM 12.2 °F -3.7 °F 5.0 °F 73% 30.09 in 10.0 mi WNW 15.0 mph 24.2 mph N/A   Clear
5:56 PM 10.4 °F -8.2 °F 3.2 °F 73% 30.10 in 10.0 mi WNW 19.6 mph - N/A   Clear
6:16 PM 8.6 °F -11.9 °F 3.2 °F 79% 30.11 in 10.0 mi WNW 23.0 mph - N/A   Clear
6:36 PM 8.6 °F -10.0 °F 1.4 °F 73% 30.11 in 10.0 mi WNW 18.4 mph 24.2 mph N/A   Clear
6:55 PM 6.8 °F -11.8 °F 1.4 °F 79% 30.13 in 10.0 mi WNW 17.3 mph 23.0 mph N/A   Clear
9:43 PM 3.2 °F -13.1 °F -2.2 °F 78% 30.19 in 10.0 mi WNW 11.5 mph - N/A   Clear
9:49 PM 3.2 °F -12.2 °F -2.2 °F 78% 30.20 in 10.0 mi WNW 10.4 mph - N/A   Clear
10:15 PM 3.2 °F -13.1 °F -2.2 °F 78% 30.21 in 10.0 mi WNW 11.5 mph - N/A   Clear
10:35 PM 1.4 °F -15.3 °F -4.0 °F 78% 30.21 in 10.0 mi WNW 11.5 mph - N/A   Clear
10:56 PM 1.4 °F -16.1 °F -4.0 °F 78% 30.22 in 10.0 mi WNW 12.7 mph - N/A   Clear
11:16 PM 1.4 °F -13.5 °F -5.8 °F 72% 30.23 in 10.0 mi NW 9.2 mph - N/A   Clear
11:35 PM 1.4 °F -13.5 °F -5.8 °F 72% 30.23 in 10.0 mi NW 9.2 mph - N/A   Clear
11:55 PM 1.4 °F -13.5 °F -5.8 °F 72% 30.23 in 10.0 mi NW 9.2 mph - N/A   Clear